Location: Bletchingley
(51.2333°N, 0.1000°W)
Time: 01:52:54
(UTC+00:00)

Lacrosse 4 Rocket - Pass Details

Date: 18 September 2020
Orbit: 543 x 615 km, 68.0° (Epoch: 30 October)

Event Time Altitude Azimuth Distance (km) Brightness Sun altitude
Rises 19:18:10 0° 327° (NNW) 2,717 5.7 -11.8°
Reaches altitude 10° 19:22:23 10° 10° (N) 1,822 4.1 -12.4°
Maximum altitude 19:23:07 10° 20° (NNE) 1,796 3.9 -12.5°
Drops below altitude 10° 19:23:52 10° 31° (NNE) 1,822 3.8 -12.6°
Enters shadow 19:25:49 - 55° (NE) 2,113 4.0 -12.9°
